Regional Weather Roundup
Issued by NWS

Home | Current Version | Previous Version | Text Only | Print | Product List | Glossary On
Versions: 1 2 3 4 5 6 7 8 9 10 11 12 13 14 15 16 17 18 19 20 21 22 23 24 25 26 27 28 29 30 31 32 33 34 35 36 37 38 39 40 41 42 43 44 45 46 47 48 49 50
000
ASCA42 TJSJ 291910
RWRPR
PUERTO RICO/U.S. VIRGIN ISLANDS HOURLY WEATHER ROUNDUP
NATIONAL WEATHER SERVICE SAN JUAN PR
300 PM AST SAT AUG 29 2015

PRZ001-004-292000-
PUERTO RICO

CITY           SKY/WX    TMP DP  RH WIND       PRES   REMARKS
SAN JUAN LMM   MOSUNNY   88  75  66 NE17      29.99F HX  97
PONCE          MOSUNNY   91  75  59 SE12G17   29.92F HX 102
MAYAGUEZ       PTSUNNY   91  77  62 W10       30.00S HX 105
AGUADILLA      PTSUNNY   86  75  70 E22       29.99F HX  95
$$

PRZ006-007-292000-
U.S. VIRGIN ISLANDS

CITY           SKY/WX    TMP DP  RH WIND       PRES   REMARKS
CHARLOTTE AMA  SUNNY     91  72  52 E16       29.98F HX  98
CHRISTIANSTED  MOSUNNY   90  75  62 E18G26    29.99F HX 100
$$

HOURLY WEATHER ROUNDUP FOR THE NEWS MEDIA

CITY           SKY/WX    TMP DP  RH WIND       PRES   REMARKS
ORLANDO        TSTM      78  75  90 E8G22     30.05F FOG
NEW YORK       PTSUNNY   82  58  43 S12       30.15F
NEWARK         PTSUNNY   83  61  47 SE9G17    30.13F
CHICAGO        CLOUDY    69  66  90 SW6       30.01F FOG
HARTFORD       PTSUNNY   78  60  53 SW10G18   30.13F
BOSTON         PTSUNNY   81  54  39 W8        30.12F
DALLAS         CLOUDY    92  67  43 SE16      29.97F HX  95
PHILADELPHIA   MOSUNNY   86  58  38 SW7       30.14F
LOS ANGELES    SUNNY     82  67  60 W12       29.91S
WASHINGTON DC  PTSUNNY   84  63  49 W6        30.14F


USA.gov is the U.S. government's official web portal to all federal, state and local government web resources and services.